Other Public Products
Issued by NWS Grand Forks, ND

Home | Current Version | Previous Version | Graphics & Text | Print | Product List | Glossary On
Versions: 1 2 3 4 5 6 7 8 9 10 11 12 13 14 15 16 17 18 19 20 21 22 23 24 25 26 27 28 29 30 31 32 33 34 35 36 37 38 39 40 41 42 43 44 45 46 47 48 49 50
093
FPUS83 KFGF 281610
OPUFGF
PRAIRIE TO PINES WEATHER ROUNDUP
NATIONAL WEATHER SERVICE EASTERN NORTH DAKOTA/GRAND FORKS ND
1100 AM CDT THU JUL 28 2016

 **SATELLITE DATA USED TO AUGMENT SKY COVER AT AUTOMATED STATIONS**
 *****  WEATHER ACROSS EASTERN NORTH DAKOTA  *****

CITY           SKY/WX    TMP DP  RH WIND       PRES   REMARKS
GRAND FORKS    MOSUNNY   72  56  57 NE12      30.13R
GRAND FORKS AF MOSUNNY   71  56  60 NE10      30.14
GRAND CITY NWS   N/A     70 N/A N/A NE10        N/A
BUXTON           N/A     72  64  78 N5          N/A
DEVILS LAKE    PTSUNNY   66  56  70 E7        30.17S
FARGO          PTSUNNY   73  63  70 NW5       30.10R
WAHPETON ARPT  CLOUDY    72  59  64 NW3       30.11R
$$

 *****  WEATHER ACROSS CENTRAL AND WESTERN NORTH DAKOTA  *****

CITY           SKY/WX    TMP DP  RH WIND       PRES   REMARKS
JAMESTOWN      PTSUNNY   67  60  78 N8        30.12F
BISMARCK       CLOUDY    69  58  67 NE6       30.15F
MINOT          CLOUDY    71  54  54 N5        30.17S
MINOT AFB      MOSUNNY   69  55  60 NE10      30.16
GARRISON         N/A     65  58  78 VRB6      30.18R
WILLISTON      MOSUNNY   71  58  63 E12       30.17S
DICKINSON      CLOUDY    60  58  92 E10       30.15R
HETTINGER      CLOUDY    68  58  70 SE9       30.15S
$$

 *****  OTHER OBSERVATIONS NORTHEAST NORTH DAKOTA  *****

CITY           SKY/WX    TMP DP  RH WIND       PRES   REMARKS
WALHALLA       NOT AVBL
LANGDON        FAIR      68  55  64 NE8       30.18S
CAVALIER       FAIR      66  55  68 NE7       30.16S
GRAFTON        FAIR      68  55  64 N10       30.16S
CANDO          NOT AVBL
FORT TOTTEN    NOT AVBL
ROLLA            N/A     64  52  63 NE8       30.20S
RUGBY          NOT AVBL
 ***** THE ABOVE OBSERVATIONS ARE NON NWS ARE NOT QUALITY
        CONTROLLED AND MAY MIS-REPORT RAIN FOR SNOW...
$$

 *****  OTHER OBSERVATIONS SOUTHEAST NORTH DAKOTA *****

CITY           SKY/WX    TMP DP  RH WIND       PRES   REMARKS
COOPERSTOWN    NOT AVBL
VALLEY CITY    FAIR      68  66  94 NE6       30.15S
OAKES            N/A    N/A N/A N/A MISG        N/A
GWINNER        FAIR      72  63  73 CALM      30.12S
SHEYENNE NWR     N/A     74  62  66 S2        29.95
BUFFALO          N/A     69  58  68 N3          N/A
WYNDMERE       NOT AVBL
 ***** THE ABOVE OBSERVATIONS ARE NON NWS ARE NOT QUALITY
       CONTROLLED AND MAY MIS-REPORT RAIN FOR SNOW...
$$

  *****  WEATHER ACROSS NORTHERN MINNESOTA  *****

CITY           SKY/WX    TMP DP  RH WIND       PRES   REMARKS
FLAG ISLAND    MOSUNNY   66  54  63 N8        30.13S
WARROAD        MOSUNNY   66  59  77 NE9       30.14S
ROSEAU         MOSUNNY   68  57  68 N5        30.14R
HALLOCK        SUNNY     66  54  63 N6        30.15R
THF RVR FALLS  SUNNY     70  58  65 N7        30.13S
HALSTAD          N/A     71  61  69 N6          N/A
FOSSTON        SUNNY     72  61  68 NE7       30.12S
BAUDETTE       SUNNY     70  55  59 N6        30.12F
WASKISH        SUNNY     70  57  64 CALM      30.12R
CROOKSTON      SUNNY     72  61  68 N6        30.13R
$$
  *****  WEATHER ACROSS CENTRAL AND WEST MINNESOTA  *****

CITY           SKY/WX    TMP DP  RH WIND       PRES   REMARKS
BEMIDJI        PTSUNNY   70  57  64 NE5       30.11S
PARK RAPIDS    MOSUNNY   72  61  68 VRB5      30.10F
WADENA         CLOUDY    72  61  68 E6        30.10R
DETROIT LAKES  PTSUNNY   72  59  64 CALM      30.12R
MOORHEAD       MOSUNNY   72  64  78 CALM      30.10S
FERGUS FALLS   PTSUNNY   72  61  68 E5        30.10S
ELBOW LAKE     FAIR      71  61  71 E5        30.10R
MORRIS MN      CLOUDY    73  61  64 NE5       30.08S
STAPLES        MOSUNNY   70  57  64 NE6       30.09S
WHEATON        PTSUNNY   73  64  73 CALM      30.11R
$$
  *****  WEATHER ELSEWHERE ACROSS MINNESOTA  *****

CITY           SKY/WX    TMP DP  RH WIND       PRES   REMARKS
DULUTH         SUNNY     71  54  54 E10       30.10S
INTRNTL FALLS  PTSUNNY   71  58  63 N5        30.11F
ELY            MOSUNNY   70  52  52 SE3       30.11S
CLOQUET        MOSUNNY   68  52  56 E8        30.10S
BRAINERD       MOSUNNY   69  56  62 NE8       30.10R
HIBBING        MOSUNNY   69  58  67 VRB6      30.11S
ALEXANDRIA     MOSUNNY   71  57  61 E8        30.11R
SAINT CLOUD    CLOUDY    70  59  68 N8        30.07R
MINNEAPOLIS    CLOUDY    66  61  84 N10       30.04R
$$

  *****  WEATHER ACROSS SOUTH DAKOTA  *****

CITY           SKY/WX    TMP DP  RH WIND       PRES   REMARKS
SIOUX FALLS    PTSUNNY   70  63  78 NE9       30.08S
BROOKINGS      MOSUNNY   69  61  75 MISG      30.09S
WATERTOWN      PTSUNNY   73  60  63 NE9       30.10S
HURON          SUNNY     74  61  63 N12       30.08F
SISSETON         N/A     72  61  68 E3        30.09S
ABERDEEN       CLOUDY    66  60  81 N6        30.10F
MITCHELL       CLOUDY    74  59  59 VRB7      30.08F
PIERRE         MOSUNNY   74  55  51 SE12      30.10S
MOBRIDGE       PTSUNNY   70  56  61 E7        30.11S
RAPID CITY     PTSUNNY   66  60  81 N5        30.17R
$$

  *****  SOME WEATHER IN NEARBY STATES *****

CITY           SKY/WX    TMP DP  RH WIND       PRES   REMARKS
GLASGOW MT     PTSUNNY   67  59  75 E8        30.17S
GREAT FALLS MT SUNNY     71  51  49 NE6       30.19F
CHEYENNE WY    CLOUDY    60  58  92 CALM      30.28R FOG
SCOTTSBLUFF NE LGT RAIN  61  32  33 NE8       30.24R
OMAHA NE       MOSUNNY   79  68  69 N10       30.02F
DES MOINES IA  MOSUNNY   78  66  66 N12G21    29.99R
DAVENPORT IA   PTSUNNY   80  69  69 NW3       29.91S
CHICAGO IL     PTSUNNY   83  70  64 NE8       29.89F
EAU CLAIRE WI  CLOUDY    66  62  87 NE9       30.01R
LA CROSSE WI   CLOUDY    69  67  93 N8        29.94R
$$

  *****  SOME NATIONAL WEATHER *****

CITY           SKY/WX    TMP DP  RH WIND       PRES   REMARKS
LA GUARDIA NY  PTSUNNY   92  61  35 NW5       29.89F HX  92
RALEIGH NC     MOSUNNY   91  75  59 VRB7      29.93F HX 101
ATLANTA GA     CLOUDY    82  70  66 SW9       30.06S
NEW ORLEANS LA MOSUNNY   90  76  63 SW9       30.06R HX 101
OKLAHOMA CITY  MOSUNNY   86  73  65 VRB5      29.98F HX  93
ALBUQUERQUE NM MOSUNNY   80  55  42 CALM      30.26F
SALT LAKE CITY MOSUNNY   86  41  20 SW3       30.11R
LOS ANGELES CA MOSUNNY   73  65  75 VRB6      29.92S
BOISE ID       SUNNY     77  47  34 W5        30.08S
SEATTLE WA     SUNNY     70  59  68 CALM      30.15S
$$

*** WEATHER ACROSS MANITOBA...SASKATCHEWAN AND ONTARIO ***
                ***ONTARIO***

CITY           SKY/WX    TMP DP  RH WIND       PRES   REMARKS
GERALDTON      PTSUNNY   63  52  67 N7        30.12S
THUNDER BAY    MOSUNNY   70  54  56 E10       30.11S
SIOUX LOOKOUT  PTSUNNY   66  50  55 VRB5      30.15S
TORONTO        CLOUDY    82  63  51 SE8       29.92S
BIG TROUT LK   NOT AVBL
PICKLE LAKE    PTSUNNY   63  48  59 N3        30.15S
DRYDEN         PTSUNNY   64  52  63 N5        30.15S
KENORA         PTSUNNY   64  52  63 VRB3      30.15S
$$
                *** MANITOBA***

CITY           SKY/WX    TMP DP  RH WIND       PRES   REMARKS
BRANDON        PTSUNNY   70  55  60 N5        30.17F
DAUPHIN        SUNNY     73  55  53 SW7       30.14S
ISLAND LAKE    NOT AVBL
PILOT MOUND      N/A     66  52  59 E5          N/A
THE PAS        NOT AVBL
THOMPSON       PTSUNNY   72  59  64 S5        30.03F
WINNIPEG       MOSUNNY   68  50  52 N7        30.16F
LYNN LAKE      CLOUDY    70  59  68 MISG      30.06R
CHURCHILL      PTSUNNY   55  48  76 N14G20    30.06R
GILLAM         LGT RAIN  63  59  88 SW7       30.05F
$$
                ***SASKATCHEWAN***

CITY           SKY/WX    TMP DP  RH WIND       PRES   REMARKS
ESTEVAN        MOSUNNY   70  55  60 SE6       30.19S
KINDERSLEY     MOSUNNY   72  61  68 S7        30.15S
LLOYDMINSTER   PTSUNNY   73  61  64 W5        30.12S
PRINCE ALBERT  MOSUNNY   77  59  53 SW10      30.10S
REGINA         MOSUNNY   70  61  73 S9        30.18S
YORKTON        SUNNY     72  55  56 NW7       30.16S  C1F1C2F2C3F3C4F4C5F5C6F6C7F7C8F8C9F9CaFaCbFbCcFcCdFdCe!



USA.gov is the U.S. government's official web portal to all federal, state and local government web resources and services.